TimePST,TemperatureF,Dew PointF,Humidity,Sea Level PressureIn,VisibilityMPH,Wind Direction,Wind SpeedMPH,Gust SpeedMPH,PrecipitationIn,Events,Conditions,WindDirDegrees,DateUTC
12:33 AM,42.8,41.0,93,29.98,10.0,South,8.1,-,N/A,,Overcast,180,2013-02-06 08:33:00
12:58 AM,43.0,41.4,94,30.00,10.0,South,11.5,-,N/A,,Overcast,190,2013-02-06 08:58:00
1:18 AM,42.8,41.0,93,29.99,10.0,South,10.4,-,N/A,,Overcast,190,2013-02-06 09:18:00
1:23 AM,42.8,41.0,93,29.99,10.0,SSW,8.1,-,N/A,,Overcast,200,2013-02-06 09:23:00
1:28 AM,42.8,41.0,93,29.99,10.0,South,12.7,-,N/A,Rain,Light Rain,190,2013-02-06 09:28:00
1:36 AM,42.8,41.0,93,29.99,10.0,SSW,11.5,-,N/A,,Overcast,200,2013-02-06 09:36:00
1:51 AM,42.8,41.0,93,30.00,10.0,South,9.2,-,N/A,Rain,Light Rain,190,2013-02-06 09:51:00
1:58 AM,43.3,40.6,90,30.02,10.0,SSW,10.4,-,0.00,Rain,Light Rain,200,2013-02-06 09:58:00
2:18 AM,42.8,41.0,93,30.00,10.0,South,10.4,-,N/A,Rain,Light Rain,190,2013-02-06 10:18:00
2:23 AM,42.8,41.0,93,30.00,10.0,South,12.7,-,N/A,Rain,Light Rain,190,2013-02-06 10:23:00
2:33 AM,42.8,41.0,93,30.00,10.0,South,10.4,-,N/A,Rain,Light Rain,190,2013-02-06 10:33:00
2:34 AM,42.8,41.0,93,30.00,10.0,SSW,10.4,-,N/A,,Overcast,200,2013-02-06 10:34:00
2:39 AM,42.8,41.0,93,30.00,10.0,South,11.5,-,N/A,,Overcast,190,2013-02-06 10:39:00
2:47 AM,42.8,41.0,93,30.00,10.0,SSW,8.1,-,N/A,Rain,Light Rain,200,2013-02-06 10:47:00
2:52 AM,42.8,41.0,93,30.00,10.0,SSW,9.2,-,N/A,,Overcast,200,2013-02-06 10:52:00
2:58 AM,42.4,41.7,97,30.02,10.0,South,9.2,-,0.01,,Overcast,190,2013-02-06 10:58:00
3:07 AM,42.8,41.0,93,30.00,10.0,South,10.4,-,N/A,Rain,Light Rain,190,2013-02-06 11:07:00
3:16 AM,42.8,41.0,93,30.01,10.0,South,11.5,-,N/A,,Overcast,190,2013-02-06 11:16:00
3:21 AM,42.8,41.0,93,30.01,10.0,South,11.5,-,N/A,Rain,Light Rain,190,2013-02-06 11:21:00
3:30 AM,42.8,41.0,93,30.01,10.0,South,11.5,-,N/A,,Overcast,180,2013-02-06 11:30:00
3:58 AM,42.1,41.9,99,30.03,10.0,South,9.2,-,0.00,,Overcast,190,2013-02-06 11:58:00
4:13 AM,42.8,41.0,93,30.01,10.0,South,12.7,-,N/A,,Overcast,190,2013-02-06 12:13:00
4:23 AM,42.8,41.0,93,30.02,10.0,South,10.4,-,N/A,,Overcast,190,2013-02-06 12:23:00
4:26 AM,42.8,41.0,93,30.02,10.0,South,12.7,-,N/A,Rain,Light Rain,190,2013-02-06 12:26:00
4:31 AM,42.8,41.0,93,30.02,10.0,South,12.7,-,N/A,Rain,Light Rain,190,2013-02-06 12:31:00
4:44 AM,42.8,41.0,93,30.03,10.0,South,9.2,-,N/A,,Overcast,190,2013-02-06 12:44:00
4:54 AM,42.8,41.0,93,30.03,10.0,South,10.4,-,N/A,,Overcast,190,2013-02-06 12:54:00
4:58 AM,42.4,41.7,97,30.05,10.0,South,10.4,-,0.00,,Overcast,180,2013-02-06 12:58:00
5:03 AM,42.8,41.0,93,30.03,10.0,South,9.2,-,N/A,,Overcast,190,2013-02-06 13:03:00
5:08 AM,42.8,41.0,93,30.03,10.0,South,10.4,-,N/A,,Overcast,190,2013-02-06 13:08:00
5:18 AM,42.8,42.8,100,30.03,10.0,South,9.2,-,N/A,,Overcast,180,2013-02-06 13:18:00
5:48 AM,42.8,41.0,93,30.04,10.0,South,10.4,-,N/A,,Overcast,180,2013-02-06 13:48:00
5:53 AM,42.8,41.0,93,30.04,10.0,South,11.5,-,N/A,,Overcast,180,2013-02-06 13:53:00
5:58 AM,41.9,41.7,99,30.06,10.0,South,11.5,-,N/A,,Overcast,180,2013-02-06 13:58:00
5:59 AM,42.8,41.0,93,30.04,10.0,South,10.4,-,N/A,Rain,Light Rain,180,2013-02-06 13:59:00
6:04 AM,42.8,41.0,93,30.04,10.0,South,11.5,-,N/A,Rain,Light Rain,180,2013-02-06 14:04:00
6:08 AM,42.8,41.0,93,30.04,10.0,South,10.4,-,N/A,,Overcast,180,2013-02-06 14:08:00
6:28 AM,41.0,41.0,100,30.05,10.0,South,9.2,-,N/A,,Overcast,180,2013-02-06 14:28:00
6:58 AM,41.7,41.5,99,30.07,10.0,South,8.1,-,0.00,,Overcast,170,2013-02-06 14:58:00
7:44 AM,41.0,41.0,100,30.06,10.0,South,10.4,-,N/A,Rain,Light Rain,170,2013-02-06 15:44:00
7:58 AM,41.7,41.5,99,30.08,10.0,South,5.8,-,0.00,Rain,Light Rain,170,2013-02-06 15:58:00
7:59 AM,41.0,41.0,100,30.06,10.0,South,4.6,-,N/A,,Overcast,170,2013-02-06 15:59:00
8:58 AM,42.1,41.9,99,30.07,10.0,SSE,4.6,-,0.00,,Partly Cloudy,160,2013-02-06 16:58:00
9:58 AM,45.1,40.8,85,30.06,10.0,South,9.2,-,N/A,,Clear,180,2013-02-06 17:58:00
10:58 AM,47.5,40.6,77,30.06,10.0,South,8.1,-,N/A,,Mostly Cloudy,180,2013-02-06 18:58:00
11:58 AM,48.7,41.0,75,30.04,10.0,South,10.4,-,N/A,,Overcast,180,2013-02-06 19:58:00
12:58 PM,49.3,39.9,70,30.02,10.0,South,8.1,-,N/A,,Overcast,180,2013-02-06 20:58:00
1:24 PM,48.2,41.0,76,29.99,10.0,South,10.4,-,N/A,Rain,Light Rain,190,2013-02-06 21:24:00
1:33 PM,48.2,41.0,76,29.99,10.0,South,12.7,-,N/A,,Overcast,190,2013-02-06 21:33:00
1:58 PM,49.5,40.1,70,30.00,10.0,South,13.8,-,0.00,,Overcast,190,2013-02-06 21:58:00
2:24 PM,48.2,41.0,76,29.97,10.0,South,12.7,-,N/A,Rain,Light Rain,180,2013-02-06 22:24:00
2:58 PM,46.4,42.6,87,29.98,10.0,SSE,4.6,-,0.01,Rain,Light Rain,150,2013-02-06 22:58:00
3:34 PM,46.4,42.8,87,29.95,10.0,SE,2.3,-,N/A,,Mostly Cloudy,140,2013-02-06 23:34:00
3:43 PM,46.4,42.8,87,29.95,10.0,SSE,2.3,-,N/A,Rain,Light Rain,150,2013-02-06 23:43:00
3:58 PM,45.7,43.9,93,29.97,10.0,SSW,3.5,-,0.01,Rain,Light Rain,200,2013-02-06 23:58:00
4:36 PM,44.6,42.8,93,29.94,10.0,ESE,4.6,-,N/A,,Overcast,120,2013-02-07 00:36:00
4:45 PM,44.6,44.6,100,29.94,10.0,SE,4.6,-,N/A,Rain,Light Rain,140,2013-02-07 00:45:00
4:55 PM,44.6,42.8,93,29.93,10.0,SE,4.6,-,N/A,,Mostly Cloudy,140,2013-02-07 00:55:00
4:58 PM,45.0,43.5,95,29.95,10.0,SSE,3.5,-,0.02,,Mostly Cloudy,150,2013-02-07 00:58:00
5:27 PM,44.6,42.8,93,29.92,10.0,South,8.1,-,N/A,Rain,Light Rain,170,2013-02-07 01:27:00
5:41 PM,44.6,41.0,87,29.92,10.0,SSE,6.9,-,N/A,,Overcast,160,2013-02-07 01:41:00
5:58 PM,44.4,42.1,91,29.93,10.0,SSE,4.6,-,0.00,,Overcast,150,2013-02-07 01:58:00
6:58 PM,44.8,40.5,85,29.89,10.0,SE,6.9,-,N/A,,Mostly Cloudy,130,2013-02-07 02:58:00
7:56 PM,46.4,39.2,76,29.85,10.0,SE,6.9,-,N/A,,Overcast,130,2013-02-07 03:56:00
8:56 PM,46.4,37.4,71,29.82,10.0,ESE,3.5,-,N/A,,Overcast,110,2013-02-07 04:56:00
9:56 PM,44.6,39.2,81,29.81,10.0,ESE,4.6,-,N/A,,Overcast,110,2013-02-07 05:56:00
10:56 PM,44.6,39.2,81,29.79,10.0,SSE,6.9,-,N/A,,Mostly Cloudy,160,2013-02-07 06:56:00
11:41 PM,48.2,39.2,71,29.80,10.0,South,12.7,-,N/A,Rain,Light Rain,170,2013-02-07 07:41:00
11:56 PM,48.2,37.4,66,29.80,10.0,South,12.7,-,N/A,Rain,Light Rain,170,2013-02-07 07:56:00
11:59 PM,46.4,39.2,76,29.80,10.0,South,11.5,-,N/A,,Overcast,170,2013-02-07 07:59:00